Change the Weather History Date:

Friday, April 5, 2013

  Actual Average Record
Temperature  
Mean Temperature 52 °F -  
Max Temperature 66 °F 70 °F 90 °F (1934)
Min Temperature 39 °F 44 °F 29 °F (1944)
Degree Days  
Heating Degree Days 12    
Growing Degree Days 2 (Base 50)    
Moisture  
Dew Point 39 °F    
Average Humidity 68    
Maximum Humidity 89    
Minimum Humidity 39    
Precipitation  
Precipitation 0.00 in - - ()
Sea Level Pressure  
Sea Level Pressure 29.99 in    
Wind  
Wind Speed 2 mph (NE)    
Max Wind Speed 6 mph    
Max Gust Speed -    
Visibility 10 miles    
Events      
Averages and records for this station are not official NWS values.
T = Trace of Precipitation, MM = Missing Value Source: NWS Daily Summary

Daily Weather History Graph

Daily Weather History Graph

Search for Another Location

Airport or City:

Trip Planner

Search our weather history database for the weather conditions in past years. The results will help you decide how hot, cold, wet, or windy it might be!

Date:

Astronomy

Apr. 05, 2013 Rise Set
Actual Time 7:12 AM EDT 7:55 PM EDT
Civil Twilight 6:47 AM EDT 8:21 PM EDT
Nautical Twilight 6:17 AM EDT 8:51 PM EDT
Astronomical Twilight 5:46 AM EDT 9:22 PM EDT
Moon 4:07 AM EDT (4/5) 3:29 PM EDT (4/5)
Length of Visible Light 13h 34m
Length of Day
12h 43m
Waning Crescent, 24% of the Moon is Illuminated
Apr 5
Waning Crescent
Apr 10
New
Apr 18
First Quarter
Apr 25
Full
May 2
Last Quarter

Hourly Weather History & Observations

Time (EDT) Temp. Windchill Dew Point Humidity Pressure Visibility Wind Dir Wind Speed Gust Speed Precip Events Conditions
12:54 AM 42.1 °F 40.2 °F 37.0 °F 82% 30.00 in 10.0 mi East 3.5 mph - N/A   Overcast
1:03 AM 42.8 °F 40.1 °F 37.4 °F 81% 29.99 in 10.0 mi East 4.6 mph - N/A   Overcast
1:50 AM 42.8 °F - 37.4 °F 81% 30.01 in 10.0 mi Calm Calm - N/A   Overcast
1:54 AM 42.1 °F - 37.0 °F 82% 30.01 in 10.0 mi Calm Calm - N/A   Overcast
2:54 AM 42.1 °F - 37.0 °F 82% 29.98 in 10.0 mi Calm Calm - N/A   Overcast
3:31 AM 41.0 °F 39.0 °F 35.6 °F 81% 29.95 in 10.0 mi NNE 3.5 mph - N/A   Scattered Clouds
3:43 AM 41.0 °F 39.0 °F 35.6 °F 81% 29.95 in 10.0 mi NNE 3.5 mph - N/A   Scattered Clouds
3:54 AM 39.9 °F - 36.0 °F 86% 29.96 in 10.0 mi Calm Calm - N/A   Partly Cloudy
4:36 AM 39.2 °F 37.0 °F 35.6 °F 87% 29.94 in 10.0 mi WNW 3.5 mph - N/A   Mostly Cloudy
4:54 AM 39.9 °F 37.8 °F 37.0 °F 89% 29.94 in 10.0 mi WSW 3.5 mph - N/A   Overcast
5:24 AM 41.0 °F - 37.4 °F 87% 29.92 in 10.0 mi Calm Calm - N/A   Overcast
5:54 AM 41.0 °F 39.0 °F 37.0 °F 86% 29.94 in 10.0 mi South 3.5 mph - N/A   Overcast
6:54 AM 41.0 °F - 37.9 °F 89% 29.99 in 10.0 mi Calm Calm - N/A   Overcast
7:35 AM 42.8 °F - 37.4 °F 81% 29.99 in 10.0 mi Calm Calm - N/A   Overcast
7:54 AM 42.1 °F - 37.9 °F 85% 29.99 in 10.0 mi Calm Calm - N/A   Overcast
8:36 AM 44.6 °F 42.2 °F 39.2 °F 81% 29.99 in 10.0 mi NNW 4.6 mph - N/A   Scattered Clouds
8:54 AM 46.0 °F - 39.0 °F 76% 30.00 in 10.0 mi Calm Calm - N/A   Scattered Clouds
9:54 AM 48.9 °F - 39.9 °F 71% 30.01 in 10.0 mi Variable 3.5 mph - N/A   Overcast
10:03 AM 48.2 °F - 39.2 °F 71% 30.00 in 10.0 mi Calm Calm - N/A   Overcast
10:34 AM 51.8 °F - 39.2 °F 62% 30.01 in 10.0 mi Calm Calm - N/A   Scattered Clouds
10:54 AM 52.0 °F - 39.9 °F 63% 30.01 in 10.0 mi Calm Calm - N/A   Clear
11:54 AM 55.0 °F - 41.0 °F 59% 30.02 in 10.0 mi NE 5.8 mph - N/A   Clear
12:54 PM 57.9 °F - 41.0 °F 53% 30.00 in 10.0 mi Calm Calm - N/A   Overcast
1:54 PM 63.0 °F - 43.0 °F 48% 29.98 in 10.0 mi Variable 5.8 mph - N/A   Partly Cloudy
2:54 PM 63.0 °F - 41.0 °F 45% 29.97 in 10.0 mi Variable 5.8 mph - N/A   Scattered Clouds
3:54 PM 66.0 °F - 41.0 °F 40% 29.96 in 10.0 mi Calm Calm - N/A   Clear
4:54 PM 66.0 °F - 41.0 °F 40% 29.94 in 10.0 mi Calm Calm - N/A   Partly Cloudy
5:54 PM 66.9 °F - 41.0 °F 39% 29.95 in 10.0 mi Variable 3.5 mph - N/A   Clear
6:54 PM 64.9 °F - 41.0 °F 42% 29.96 in 10.0 mi Variable 4.6 mph - N/A   Clear
7:54 PM 61.0 °F - 43.0 °F 52% 29.99 in 10.0 mi South 3.5 mph - N/A   Clear
8:54 PM 60.1 °F - 42.1 °F 51% 30.01 in 10.0 mi SSW 3.5 mph - N/A   Clear
9:54 PM 55.9 °F - 45.0 °F 67% 30.05 in 10.0 mi NE 4.6 mph - N/A   Clear
10:54 PM 57.0 °F - 39.9 °F 53% 30.05 in 10.0 mi NE 4.6 mph - N/A   Clear
11:54 PM 55.9 °F - 37.9 °F 51% 30.06 in 10.0 mi Calm Calm - N/A   Clear